This is the latest recevied weather packets stored in our database for station/object WA6ODQ-13. If no packets are shown the sender has not sent any weather packets the latest 10 day(s).
| Time | Temp. | Humidity | Pressure | Rain* | Wind** | Luminosity | Snow |
|---|---|---|---|---|---|---|---|
| 1788026515 | 22.78° C | 60% | 1012.9 hPa | 0 mm | - | 562 W/m² | - |
| 1788026214 | 22.22° C | 61% | 1012.8 hPa | 0 mm | - | 552 W/m² | - |
| 1788025914 | 22.22° C | 61% | 1012.8 hPa | 0 mm | - | 542 W/m² | - |
| 1788025609 | 22.22° C | 61% | 1012.9 hPa | 0 mm | - | 531 W/m² | - |
| 1788025303 | 22.22° C | 62% | 1012.9 hPa | 0 mm | - | 521 W/m² | - |
| 1788025003 | 22.22° C | 62% | 1013.1 hPa | 0 mm | - | 510 W/m² | - |
| 1788024698 | 22.22° C | 61% | 1012.9 hPa | 0 mm | - | 498 W/m² | - |
| 1788024394 | 22.22° C | 62% | 1012.9 hPa | 0 mm | - | 487 W/m² | - |
| 1788024089 | 21.67° C | 63% | 1012.8 hPa | 0 mm | - | 474 W/m² | - |
| 1788023784 | 21.67° C | 64% | 1013 hPa | 0 mm | - | 462 W/m² | - |
| 1788023480 | 22.22° C | 63% | 1013 hPa | 0 mm | - | 450 W/m² | - |
| 1788023174 | 21.67° C | 63% | 1012.7 hPa | 0 mm | - | 437 W/m² | - |
| 1788022874 | 21.11° C | 65% | 1012.7 hPa | 0 mm | - | 423 W/m² | - |
| 1788022571 | 21.11° C | 65% | 1012.3 hPa | 0 mm | - | 411 W/m² | - |
| 1788022266 | 21.11° C | 66% | 1012.6 hPa | 0 mm | - | 398 W/m² | - |
| 1788021965 | 20.56° C | 67% | 1012.3 hPa | 0 mm | - | 386 W/m² | - |
| 1788021660 | 20.56° C | 68% | 1012.4 hPa | 0 mm | - | 373 W/m² | - |
| 1788021357 | 20° C | 69% | 1012.6 hPa | 0 mm | - | 361 W/m² | - |
| 1788021053 | 20° C | 70% | 1012.6 hPa | 0 mm | - | 342 W/m² | - |
| 1788020748 | 20° C | 70% | 1012.3 hPa | 0 mm | - | 135 W/m² | - |
| 1788020443 | 19.44° C | 71% | 1012.4 hPa | 0 mm | - | 40 W/m² | - |
| 1788020139 | 19.44° C | 71% | 1012.4 hPa | 0 mm | - | 35 W/m² | - |
| 1788019839 | 18.89° C | 72% | 1012.2 hPa | 0 mm | - | 35 W/m² | - |
| 1788019533 | 18.89° C | 73% | 1012.3 hPa | 0 mm | - | 34 W/m² | - |
| 1788019233 | 18.33° C | 74% | 1012.3 hPa | 0 mm | - | 33 W/m² | - |
* Rain latest hour (hover to see other rain measurements)
** Current wind speed in m/s (hover to see current wind gust speed)